Location: ??
(35.5138°N, 139.6953°E)
Time: 08:55:01
(UTC+00:00)

Cosmos 1092 Rocket - Pass Details

Date: 07 June 2020
Orbit: 955 x 994 km, 82.9° (Epoch: 05 July)

Event Time Altitude Azimuth Distance (km) Brightness Sun altitude
Exits shadow 11:29:46 18° 169° (SSE) 2,152 5.3 -16.3°
Maximum altitude 11:34:20 63° 93° (E) 1,064 4.0 -16.9°
Drops below altitude 10° 11:40:24 10° 14° (NNE) 2,697 6.8 -17.8°
Sets 11:42:56 0° 11° (N) 3,650 7.5 -18.1°
